Location: Alsip
(41.6689°N, 87.7387°W)
Time: 13:56:03
(UTC+00:00)

Cosmos 1703 Rocket - Pass Details

Date: 14 July 2020
Orbit: 605 x 633 km, 82.5° (Epoch: 04 August)

Event Time Altitude Azimuth Distance (km) Brightness Sun altitude
Rises 06:59:51 0° 354° (N) 2,928 8.1 -25.1°
Reaches altitude 10° 07:02:07 10° 356° (N) 2,012 7.1 -25.0°
Maximum altitude 07:06:34 71° 81° (E) 663 3.6 -24.7°
Enters shadow 07:06:38 71° 90° (E) 664 3.6 -24.7°
